Weather History for Benson, MN

Change the Weather History Date:

Monday, July 1, 2013

  Actual Average Record
Temperature  
Mean Temperature 68 °F -  
Max Temperature 84 °F 81 °F 98 °F (1974)
Min Temperature 53 °F 59 °F 44 °F (1969)
Cooling Degree Days 4    
Growing Degree Days 18 (Base 50)    
Moisture  
Dew Point 54 °F    
Average Humidity 61    
Maximum Humidity 100    
Minimum Humidity 29    
Precipitation  
Precipitation 0.00 in - - ()
Sea Level Pressure  
Sea Level Pressure 30.19 in    
Wind  
Wind Speed 2 mph (ENE)    
Max Wind Speed 8 mph    
Max Gust Speed 9 mph    
Visibility 9 miles    
Events      
Averages and records for this station are not official NWS values.
T = Trace of Precipitation, MM = Missing Value Source: NWS Daily Summary

Daily Weather History Graph

Daily Weather History Graph

Search for Another Location

Airport:

Trip Planner

Search our weather history database for the weather conditions in past years. The results will help you decide how hot, cold, wet, or windy it might be!

Date:

Astronomy

Jul. 01, 2013 Rise Set
Actual Time 5:38 AM CDT 9:14 PM CDT
Civil Twilight 5:01 AM CDT 9:51 PM CDT
Nautical Twilight 4:11 AM CDT 10:41 PM CDT
Astronomical Twilight 3:05 AM CDT 11:47 PM CDT
Moon 1:20 AM CDT (7/1) 3:21 PM CDT (7/1)
Length of Visible Light 16h 50m
Length of Day
15h 35m
Waning Crescent, 35% of the Moon is Illuminated
Jul 1
Waning Crescent
Jul 8
New
Jul 15
First Quarter
Jul 22
Full
Jul 29
Last Quarter

Hourly Weather History & Observations

Time (CDT) Temp. Heat Index Dew Point Humidity Pressure Visibility Wind Dir Wind Speed Gust Speed Precip Events Conditions
12:13 AM 57.2 °F - 53.6 °F 88% 30.17 in 10.0 mi Calm Calm - N/A   Clear
12:32 AM 57.2 °F - 53.6 °F 88% 30.17 in 10.0 mi Calm Calm - N/A   Clear
12:52 AM 57.2 °F - 53.6 °F 88% 30.17 in 10.0 mi Calm Calm - N/A   Clear
1:13 AM 55.4 °F - 53.6 °F 94% 30.17 in 10.0 mi Calm Calm - N/A   Clear
1:32 AM 57.2 °F - 55.4 °F 94% 30.17 in 10.0 mi North 3.5 mph - N/A   Clear
1:53 AM 57.2 °F - 55.4 °F 94% 30.17 in 10.0 mi Calm Calm - N/A   Clear
2:13 AM 55.4 °F - 53.6 °F 94% 30.17 in 10.0 mi North 3.5 mph - N/A   Clear
2:32 AM 55.4 °F - 53.6 °F 94% 30.17 in 10.0 mi North 3.5 mph - N/A   Clear
2:53 AM 55.4 °F - 53.6 °F 94% 30.18 in 10.0 mi North 3.5 mph - N/A   Clear
3:12 AM 55.4 °F - 53.6 °F 94% 30.18 in 7.0 mi North 3.5 mph - N/A   Clear
3:32 AM 55.4 °F - 53.6 °F 94% 30.18 in 7.0 mi Calm Calm - N/A   Clear
3:53 AM 53.6 °F - 53.6 °F 100% 30.18 in 5.0 mi Calm Calm - N/A   Clear
4:12 AM 53.6 °F - 53.6 °F 100% 30.18 in 7.0 mi Calm Calm - N/A   Clear
4:32 AM 53.6 °F - 53.6 °F 100% 30.18 in 10.0 mi Calm Calm - N/A   Clear
4:53 AM 53.6 °F - 51.8 °F 94% 30.18 in 5.0 mi Calm Calm - N/A   Clear
5:12 AM 53.6 °F - 53.6 °F 100% 30.19 in 0.8 mi Calm Calm - N/A   Mist
5:33 AM 53.6 °F - 53.6 °F 100% 30.19 in 5.0 mi North 3.5 mph - N/A   Clear
5:53 AM 55.4 °F - 53.6 °F 94% 30.20 in 5.0 mi Calm Calm - N/A   Scattered Clouds
6:12 AM 55.4 °F - 55.4 °F 100% 30.20 in 5.0 mi North 3.5 mph - N/A   Scattered Clouds
6:33 AM 55.4 °F - 55.4 °F 100% 30.21 in 7.0 mi Calm Calm - N/A   Scattered Clouds
6:53 AM 59.0 °F - 57.2 °F 94% 30.21 in 7.0 mi North 3.5 mph - N/A   Scattered Clouds
7:12 AM 62.6 °F - 60.8 °F 94% 30.21 in 10.0 mi Calm Calm - N/A   Scattered Clouds
7:33 AM 64.4 °F - 60.8 °F 88% 30.21 in 10.0 mi NNE 3.5 mph - N/A   Clear
7:53 AM 66.2 °F - 60.8 °F 83% 30.21 in 10.0 mi NNE 3.5 mph - N/A   Clear
8:12 AM 69.8 °F - 60.8 °F 73% 30.22 in 10.0 mi NNE 3.5 mph - N/A   Clear
8:33 AM 71.6 °F - 60.8 °F 69% 30.22 in 10.0 mi Calm Calm - N/A   Scattered Clouds
8:53 AM 71.6 °F - 60.8 °F 69% 30.22 in 10.0 mi Calm Calm - N/A   Mostly Cloudy
9:12 AM 75.2 °F - 60.8 °F 61% 30.22 in 10.0 mi Calm Calm - N/A   Mostly Cloudy
9:33 AM 75.2 °F - 60.8 °F 61% 30.22 in 10.0 mi Calm Calm - N/A   Scattered Clouds
9:52 AM 78.8 °F - 60.8 °F 54% 30.22 in 10.0 mi Calm Calm - N/A   Scattered Clouds
10:12 AM 78.8 °F - 57.2 °F 47% 30.22 in 10.0 mi East 3.5 mph - N/A   Clear
10:33 AM 78.8 °F - 55.4 °F 44% 30.22 in 10.0 mi East 4.6 mph - N/A   Clear
10:52 AM 80.6 °F 80.8 °F 57.2 °F 45% 30.22 in 10.0 mi East 3.5 mph - N/A   Clear
11:12 AM 80.6 °F 80.3 °F 53.6 °F 39% 30.22 in 10.0 mi ENE 3.5 mph - N/A   Clear
11:33 AM 80.6 °F 80.3 °F 53.6 °F 39% 30.21 in 10.0 mi East 3.5 mph - N/A   Clear
11:52 AM 82.4 °F - 51.8 °F 35% 30.22 in 10.0 mi East 4.6 mph - N/A   Clear
12:13 PM 82.4 °F 81.4 °F 53.6 °F 37% 30.21 in 10.0 mi Calm Calm - N/A   Clear
12:33 PM 82.4 °F - 51.8 °F 35% 30.21 in 10.0 mi NE 5.8 mph - N/A   Scattered Clouds
12:52 PM 84.2 °F - 51.8 °F 33% 30.21 in 10.0 mi ENE 5.8 mph - N/A   Clear
1:13 PM 84.2 °F - 51.8 °F 33% 30.21 in 10.0 mi NNE 8.1 mph - N/A   Clear
1:33 PM 82.4 °F - 50.0 °F 32% 30.21 in 10.0 mi East 5.8 mph - N/A   Scattered Clouds
1:52 PM 84.2 °F - 50.0 °F 30% 30.20 in 10.0 mi East 8.1 mph - N/A   Scattered Clouds
2:13 PM 84.2 °F - 48.2 °F 29% 30.20 in 10.0 mi East 6.9 mph - N/A   Scattered Clouds
2:33 PM 84.2 °F - 51.8 °F 33% 30.20 in 10.0 mi NE 4.6 mph - N/A   Scattered Clouds
2:52 PM 82.4 °F 81.4 °F 53.6 °F 37% 30.19 in 10.0 mi East 5.8 mph - N/A   Clear
3:13 PM 84.2 °F - 51.8 °F 33% 30.19 in 10.0 mi East 6.9 mph - N/A   Clear
3:32 PM 84.2 °F - 51.8 °F 33% 30.18 in 10.0 mi ENE 4.6 mph - N/A   Clear
3:52 PM 84.2 °F - 50.0 °F 30% 30.18 in 10.0 mi ENE 4.6 mph 9.2 mph N/A   Clear
4:13 PM 84.2 °F - 51.8 °F 33% 30.18 in 10.0 mi ENE 6.9 mph - N/A   Clear
4:32 PM 84.2 °F - 50.0 °F 30% 30.17 in 10.0 mi ENE 5.8 mph - N/A   Clear
4:52 PM 84.2 °F - 48.2 °F 29% 30.17 in 10.0 mi NNE 3.5 mph - N/A   Clear
5:13 PM 84.2 °F - 51.8 °F 33% 30.17 in 10.0 mi ENE 4.6 mph - N/A   Clear
5:32 PM 84.2 °F - 51.8 °F 33% 30.17 in 10.0 mi ENE 4.6 mph - N/A   Clear
5:53 PM 82.4 °F - 48.2 °F 30% 30.17 in 10.0 mi NE 5.8 mph - N/A   Scattered Clouds
6:13 PM 82.4 °F 81.4 °F 53.6 °F 37% 30.17 in 10.0 mi East 3.5 mph - N/A   Scattered Clouds
6:32 PM 82.4 °F - 51.8 °F 35% 30.16 in 10.0 mi ENE 4.6 mph - N/A   Clear
6:53 PM 82.4 °F - 51.8 °F 35% 30.17 in 10.0 mi ENE 5.8 mph - N/A   Clear
7:12 PM 80.6 °F - 51.8 °F 37% 30.16 in 10.0 mi East 3.5 mph - N/A   Clear
7:32 PM 80.6 °F 80.5 °F 55.4 °F 42% 30.16 in 10.0 mi Calm Calm - N/A   Clear
7:53 PM 78.8 °F - 55.4 °F 44% 30.16 in 10.0 mi Calm Calm - N/A   Clear
8:12 PM 78.8 °F - 55.4 °F 44% 30.17 in 10.0 mi Calm Calm - N/A   Clear
8:32 PM 77.0 °F - 55.4 °F 47% 30.17 in 10.0 mi Calm Calm - N/A   Clear
8:53 PM 75.2 °F - 55.4 °F 50% 30.16 in 10.0 mi East 3.5 mph - N/A   Scattered Clouds
9:12 PM 73.4 °F - 55.4 °F 53% 30.16 in 10.0 mi East 3.5 mph - N/A   Clear
9:33 PM 73.4 °F - 55.4 °F 53% 30.16 in 10.0 mi Calm Calm - N/A   Clear
9:53 PM 73.4 °F - 55.4 °F 53% 30.17 in 10.0 mi ESE 3.5 mph - N/A   Clear
10:12 PM 71.6 °F - 55.4 °F 57% 30.17 in 10.0 mi Calm Calm - N/A   Clear
10:33 PM 71.6 °F - 55.4 °F 57% 30.17 in 10.0 mi ESE 3.5 mph - N/A   Scattered Clouds
10:53 PM 69.8 °F - 55.4 °F 60% 30.17 in 10.0 mi ESE 3.5 mph - N/A   Scattered Clouds
11:12 PM 69.8 °F - 57.2 °F 64% 30.17 in 10.0 mi ESE 3.5 mph - N/A   Clear
11:33 PM 64.4 °F - 55.4 °F 73% 30.17 in 10.0 mi ESE 3.5 mph - N/A   Clear
11:53 PM 69.8 °F - 57.2 °F 64% 30.17 in 10.0 mi ESE 3.5 mph - N/A   Clear